Home > Weather > Ulaanbaatar > Past weeks

Flag for Mongolia Past Weather in Ulaanbaatar, Mongolia — Yesterday and Last 2 Weeks

Now
41 °F

Clear.


Feels Like: 41 °F
Forecast: 35 / 67 °F
Wind: 1 mph from North

Location: Ulan-Bator

Current Time: Aug 26, 2016 at 12:19:52 AM

Latest Report: Aug 26, 2016 at 12:00 AM


Visibility: 10 mi

Pressure: 30.24 "Hg (25.78 "Hg at 1298m altitude)

Humidity: 66%

Dew Point: 30 °F

Location of UlaanbaatarLocation

Past Weather in Ulaanbaatar — Graph

°F

Ulaanbaatar Temperature Yesterday

Maximum temperature yesterday: 63 °F (at 5:00 PM)
Minimum temperature yesterday: 30 °F (at 7:00 AM)
Average temperature yesterday: 48 °F

High & Low Weather Summary for the Past Weeks

 TemperatureHumidityPressure
High81 °F (Aug 21, 2:30 PM)100% (Aug 23, 8:30 AM)30.39 "Hg (Aug 23, 8:30 AM)
Low30 °F (Aug 25, 7:00 AM)24% (Aug 21, 1:30 PM)29.74 "Hg (Aug 10, 11:00 PM)
Average60 °F63%30.00 "Hg
* Reported Aug 10 11:00 PM — Aug 25 11:00 PM, Ulaanbaatar, Weather by CustomWeather, © 2016

Note: Actual official high and low records may vary slightly from our data, if they occured in-between our weather recording intervals... More about our weather records

Advertising

Ulaanbaatar Weather History for the Previous 24 Hours

Scroll right to see more
 ConditionsComfort  
Time TempWeatherWind HumidityBarometerVisibility
11:00 PM
Thu, Aug 25
45 °FClear.6 mph61%30.21 "Hg10 mi
10:30 PM45 °FSunny.6 mph61%30.21 "Hg10 mi
10:00 PM46 °FSunny.6 mph57%30.21 "Hg10 mi
9:30 PM55 °FPassing clouds.1 mph38%30.21 "HgN/A
9:00 PM57 °FPassing clouds.1 mph36%30.21 "HgN/A
8:30 PM59 °FPartly sunny.3 mph31%30.21 "HgN/A
8:00 PM61 °FPartly sunny.6 mph29%30.21 "HgN/A
7:30 PM63 °FPartly sunny.6 mph27%30.21 "HgN/A
7:00 PM61 °FPartly sunny.8 mph29%30.21 "HgN/A
6:30 PM63 °FPartly sunny.3 mph27%30.21 "HgN/A
6:00 PM63 °FPartly sunny.8 mph30%30.24 "HgN/A
5:30 PM63 °FPartly sunny.8 mph30%30.24 "HgN/A
5:00 PM63 °FPartly sunny.6 mph30%30.24 "HgN/A
4:30 PM61 °FPartly sunny.10 mph31%30.27 "HgN/A
4:00 PM61 °FPartly sunny.6 mph31%30.27 "HgN/A
3:30 PM61 °FPartly sunny.6 mph31%30.30 "HgN/A
3:00 PM59 °FScattered clouds.6 mph36%30.30 "HgN/A
2:30 PM59 °FScattered clouds.8 mph36%30.30 "HgN/A
2:00 PM59 °FScattered clouds.3 mph36%30.33 "HgN/A
1:30 PM59 °FScattered clouds.3 mph39%30.33 "HgN/A
1:00 PM57 °FPartly sunny.3 mph41%30.33 "HgN/A
12:30 PM57 °FPartly sunny.3 mph39%30.36 "HgN/A
12:00 PM54 °FPassing clouds.3 mph44%30.36 "HgN/A
11:30 AM54 °FPassing clouds.3 mph54%30.39 "HgN/A
11:00 AM50 °FPassing clouds.3 mph62%30.39 "HgN/A
10:30 AM48 °FPassing clouds.1 mph66%30.39 "HgN/A
10:00 AM45 °FPassing clouds.1 mph76%30.39 "HgN/A
9:30 AM43 °FPassing clouds.No wind76%30.39 "HgN/A
9:00 AM41 °FPassing clouds.1 mph81%30.39 "HgN/A
8:30 AM37 °FPassing clouds.No wind93%30.39 "HgN/A
8:00 AM32 °FPassing clouds.No wind93%30.39 "HgN/A
7:30 AM30 °FClear.3 mph93%30.39 "Hg10 mi
7:00 AM30 °FClear.1 mph93%30.39 "Hg10 mi
6:30 AM32 °FClear.3 mph93%30.39 "Hg10 mi
6:00 AM32 °FClear.1 mph93%30.39 "Hg10 mi
5:30 AM32 °FClear.No wind93%30.39 "Hg10 mi
5:00 AM36 °FClear.No wind93%30.39 "Hg10 mi
4:30 AM34 °FClear.1 mph93%30.39 "Hg10 mi
4:00 AM34 °FClear.6 mph87%30.39 "Hg10 mi
3:30 AM32 °FClear.3 mph93%30.36 "Hg10 mi
3:00 AM34 °FClear.3 mph93%30.36 "Hg10 mi
2:30 AM37 °FClear.1 mph87%30.36 "Hg10 mi
2:00 AM36 °FClear.3 mph87%30.36 "Hg10 mi
1:00 AM37 °FClear.1 mph87%30.36 "Hg10 mi
12:30 AM37 °FClear.3 mph87%30.33 "Hg10 mi
12:00 AM41 °FClear.No wind81%30.33 "Hg10 mi
Weather by CustomWeather, © 2016

See weather overviewHow to use our weather pages